Data supplied by UK-AIR on 25/3/2022
All Data GMT hour ending 
Status: R =Ratified P=Provisional,P*=As supplied
,,Dumbarton Roadside,,,,,,,,,,,,,,,,,,,,,,,
Date,time,"Nitric oxide",status,unit,"Nitrogen dioxide",status,unit,"Nitrogen oxides as nitrogen dioxide",status,unit
 
01-01-2021,01:00,1.70883,R,ugm-3,13.73815,R,ugm-3,16.35832,R,ugm-3
01-01-2021,02:00,2.46466,R,ugm-3,16.08458,R,ugm-3,19.86367,R,ugm-3
01-01-2021,03:00,1.31449,R,ugm-3,8.65295,R,ugm-3,10.66847,R,ugm-3
01-01-2021,04:00,2.39894,R,ugm-3,18.06504,R,ugm-3,21.74336,R,ugm-3
01-01-2021,05:00,3.51625,R,ugm-3,23.15935,R,ugm-3,28.55086,R,ugm-3
01-01-2021,06:00,1.77456,R,ugm-3,15.11064,R,ugm-3,17.83159,R,ugm-3
01-01-2021,07:00,9.66147,R,ugm-3,34.41333,R,ugm-3,49.22737,R,ugm-3
01-01-2021,08:00,9.03709,R,ugm-3,33.54182,R,ugm-3,47.39849,R,ugm-3
01-01-2021,09:00,6.14522,R,ugm-3,33.20054,R,ugm-3,42.62308,R,ugm-3
01-01-2021,10:00,7.22967,R,ugm-3,19.75162,R,ugm-3,30.83696,R,ugm-3
01-01-2021,11:00,27.11126,R,ugm-3,40.42480,R,ugm-3,81.99481,R,ugm-3
01-01-2021,12:00,13.73637,R,ugm-3,28.06362,R,ugm-3,49.12576,R,ugm-3
01-01-2021,13:00,6.07949,R,ugm-3,13.38684,R,ugm-3,22.70860,R,ugm-3
01-01-2021,14:00,5.22508,R,ugm-3,11.49638,R,ugm-3,19.50806,R,ugm-3
01-01-2021,15:00,6.67101,R,ugm-3,14.15633,R,ugm-3,24.38507,R,ugm-3
01-01-2021,16:00,10.22012,R,ugm-3,20.90698,R,ugm-3,36.57761,R,ugm-3
01-01-2021,17:00,26.55260,R,ugm-3,45.24397,R,ugm-3,85.95739,R,ugm-3
01-01-2021,18:00,29.44447,R,ugm-3,57.01575,R,ugm-3,102.16330,R,ugm-3
01-01-2021,19:00,32.33634,R,ugm-3,50.95594,R,ugm-3,100.53763,R,ugm-3
01-01-2021,20:00,29.28016,R,ugm-3,51.47623,R,ugm-3,96.37184,R,ugm-3
01-01-2021,21:00,27.60419,R,ugm-3,49.47381,R,ugm-3,91.79964,R,ugm-3
01-01-2021,22:00,22.21480,R,ugm-3,51.28554,R,ugm-3,85.34776,R,ugm-3
01-01-2021,23:00,12.25757,R,ugm-3,36.32574,R,ugm-3,55.12043,R,ugm-3
01-01-2021,24:00,10.94309,R,ugm-3,34.17547,R,ugm-3,50.95464,R,ugm-3
02-01-2021,01:00,6.34444,R,ugm-3,26.37677,R,ugm-3,36.10477,R,ugm-3
02-01-2021,02:00,3.84611,R,ugm-3,15.30791,R,ugm-3,21.20520,R,ugm-3
02-01-2021,03:00,1.61076,R,ugm-3,13.19255,R,ugm-3,15.66235,R,ugm-3
02-01-2021,04:00,1.97236,R,ugm-3,18.13010,R,ugm-3,21.15434,R,ugm-3
02-01-2021,05:00,1.84087,R,ugm-3,17.00957,R,ugm-3,19.83220,R,ugm-3
02-01-2021,06:00,8.77702,R,ugm-3,25.69797,R,ugm-3,39.15588,R,ugm-3
02-01-2021,07:00,13.60931,R,ugm-3,29.62851,R,ugm-3,50.49582,R,ugm-3
02-01-2021,08:00,15.31869,R,ugm-3,39.97470,R,ugm-3,63.46303,R,ugm-3
02-01-2021,09:00,31.95229,R,ugm-3,51.18519,R,ugm-3,100.17802,R,ugm-3
02-01-2021,10:00,22.02473,R,ugm-3,47.84634,R,ugm-3,81.61712,R,ugm-3
02-01-2021,11:00,64.26619,R,ugm-3,55.89677,R,ugm-3,154.43688,R,ugm-3
02-01-2021,12:00,82.28044,R,ugm-3,62.75280,R,ugm-3,188.91438,R,ugm-3
02-01-2021,13:00,24.85178,R,ugm-3,35.78211,R,ugm-3,73.88765,R,ugm-3
02-01-2021,14:00,19.09906,R,ugm-3,31.02541,R,ugm-3,60.31022,R,ugm-3
02-01-2021,15:00,32.08378,R,ugm-3,47.42395,R,ugm-3,96.61839,R,ugm-3
02-01-2021,16:00,37.44204,R,ugm-3,53.34487,R,ugm-3,110.75519,R,ugm-3
02-01-2021,17:00,57.00131,R,ugm-3,59.05235,R,ugm-3,146.45314,R,ugm-3
02-01-2021,18:00,44.14808,R,ugm-3,56.02963,R,ugm-3,123.72239,R,ugm-3
02-01-2021,19:00,20.57833,R,ugm-3,45.02979,R,ugm-3,76.58279,R,ugm-3
02-01-2021,20:00,45.85746,R,ugm-3,62.56193,R,ugm-3,132.87572,R,ugm-3
02-01-2021,21:00,35.73266,R,ugm-3,58.61018,R,ugm-3,113.39948,R,ugm-3
02-01-2021,22:00,61.93222,R,ugm-3,55.91584,R,ugm-3,150.87725,R,ugm-3
02-01-2021,23:00,42.10997,R,ugm-3,50.35732,R,ugm-3,114.92504,R,ugm-3
02-01-2021,24:00,37.44204,R,ugm-3,49.07332,R,ugm-3,106.48364,R,ugm-3
03-01-2021,01:00,12.82450,R,ugm-3,40.85773,R,ugm-3,60.52169,R,ugm-3
03-01-2021,02:00,12.23260,R,ugm-3,37.08238,R,ugm-3,55.83877,R,ugm-3
03-01-2021,03:00,7.85912,R,ugm-3,32.48819,R,ugm-3,44.53867,R,ugm-3
03-01-2021,04:00,2.40048,R,ugm-3,26.86011,R,ugm-3,30.54080,R,ugm-3
03-01-2021,05:00,5.82035,R,ugm-3,29.35339,R,ugm-3,38.27780,R,ugm-3
03-01-2021,06:00,7.59605,R,ugm-3,33.50237,R,ugm-3,45.14948,R,ugm-3
03-01-2021,07:00,26.24090,R,ugm-3,38.81430,R,ugm-3,79.04977,R,ugm-3
03-01-2021,08:00,31.07475,R,ugm-3,41.37916,R,ugm-3,89.02644,R,ugm-3
03-01-2021,09:00,19.92730,R,ugm-3,40.40170,R,ugm-3,70.95646,R,ugm-3
03-01-2021,10:00,26.43820,R,ugm-3,46.65598,R,ugm-3,87.19399,R,ugm-3
03-01-2021,11:00,50.21284,R,ugm-3,48.27623,R,ugm-3,125.26819,R,ugm-3
03-01-2021,12:00,70.27167,R,ugm-3,46.48265,R,ugm-3,154.23105,R,ugm-3
03-01-2021,13:00,24.00483,R,ugm-3,23.35849,R,ugm-3,60.16538,R,ugm-3
03-01-2021,14:00,16.01418,R,ugm-3,15.30101,R,ugm-3,39.85575,R,ugm-3
03-01-2021,15:00,17.95430,R,ugm-3,13.80235,R,ugm-3,41.33189,R,ugm-3
03-01-2021,16:00,15.88265,R,ugm-3,14.68827,R,ugm-3,39.04132,R,ugm-3
03-01-2021,17:00,18.54620,R,ugm-3,20.63178,R,ugm-3,49.06889,R,ugm-3
03-01-2021,18:00,25.91206,R,ugm-3,33.87205,R,ugm-3,73.60333,R,ugm-3
03-01-2021,19:00,9.01003,R,ugm-3,13.26432,R,ugm-3,27.07951,R,ugm-3
03-01-2021,20:00,4.99827,R,ugm-3,9.28624,R,ugm-3,16.95015,R,ugm-3
03-01-2021,21:00,2.89373,R,ugm-3,6.60859,R,ugm-3,11.04559,R,ugm-3
03-01-2021,22:00,2.17030,R,ugm-3,5.63089,R,ugm-3,8.95864,R,ugm-3
03-01-2021,23:00,1.90723,R,ugm-3,4.65992,R,ugm-3,7.58430,R,ugm-3
03-01-2021,24:00,1.67705,R,ugm-3,3.53672,R,ugm-3,6.10816,R,ugm-3
04-01-2021,01:00,1.05261,R,ugm-3,3.43016,R,ugm-3,5.04414,R,ugm-3
04-01-2021,02:00,1.15129,R,ugm-3,2.71840,R,ugm-3,4.48368,R,ugm-3
04-01-2021,03:00,0.75656,R,ugm-3,2.45747,R,ugm-3,3.61751,R,ugm-3
04-01-2021,04:00,0.62499,R,ugm-3,2.60827,R,ugm-3,3.56656,R,ugm-3
04-01-2021,05:00,0.62499,R,ugm-3,2.81207,R,ugm-3,3.77037,R,ugm-3
04-01-2021,06:00,1.08550,R,ugm-3,2.87022,R,ugm-3,4.53463,R,ugm-3
04-01-2021,07:00,2.00653,R,ugm-3,4.31124,R,ugm-3,7.38788,R,ugm-3
04-01-2021,08:00,4.93409,R,ugm-3,9.45210,R,ugm-3,17.01760,R,ugm-3
04-01-2021,09:00,8.35506,R,ugm-3,11.49266,R,ugm-3,24.30357,R,ugm-3
04-01-2021,10:00,7.03930,R,ugm-3,11.52304,R,ugm-3,22.31649,R,ugm-3
04-01-2021,11:00,10.59185,R,ugm-3,11.68048,R,ugm-3,27.92109,R,ugm-3
04-01-2021,12:00,11.61156,R,ugm-3,12.51164,R,ugm-3,30.31578,R,ugm-3
04-01-2021,13:00,16.28250,R,ugm-3,17.27214,R,ugm-3,42.23828,R,ugm-3
04-01-2021,14:00,21.67710,R,ugm-3,18.83405,R,ugm-3,52.07180,R,ugm-3
04-01-2021,15:00,19.37452,R,ugm-3,19.20566,R,ugm-3,48.91285,R,ugm-3
04-01-2021,16:00,19.30874,R,ugm-3,20.73316,R,ugm-3,50.33947,R,ugm-3
04-01-2021,17:00,20.32845,R,ugm-3,22.99094,R,ugm-3,54.16079,R,ugm-3
04-01-2021,18:00,14.86806,R,ugm-3,20.10328,R,ugm-3,42.90064,R,ugm-3
04-01-2021,19:00,11.15104,R,ugm-3,15.30674,R,ugm-3,32.40476,R,ugm-3
04-01-2021,20:00,8.65110,R,ugm-3,18.47756,R,ugm-3,31.74240,R,ugm-3
04-01-2021,21:00,6.94062,R,ugm-3,15.69947,R,ugm-3,26.34161,R,ugm-3
04-01-2021,22:00,14.57201,R,ugm-3,22.59524,R,ugm-3,44.93868,R,ugm-3
04-01-2021,23:00,11.54577,R,ugm-3,27.99968,R,ugm-3,45.70294,R,ugm-3
04-01-2021,24:00,8.12480,R,ugm-3,29.52567,R,ugm-3,41.98353,R,ugm-3
05-01-2021,01:00,2.76398,R,ugm-3,11.41909,R,ugm-3,15.65713,R,ugm-3
05-01-2021,02:00,1.38199,R,ugm-3,8.99907,R,ugm-3,11.11810,R,ugm-3
05-01-2021,03:00,1.44780,R,ugm-3,8.84717,R,ugm-3,11.06709,R,ugm-3
05-01-2021,04:00,1.61232,R,ugm-3,6.04488,R,ugm-3,8.51707,R,ugm-3
05-01-2021,05:00,1.28328,R,ugm-3,5.47840,R,ugm-3,7.44606,R,ugm-3
05-01-2021,06:00,16.12322,R,ugm-3,26.63551,R,ugm-3,51.35744,R,ugm-3
05-01-2021,07:00,51.46268,R,ugm-3,47.67473,R,ugm-3,126.58308,R,ugm-3
05-01-2021,08:00,80.78062,R,ugm-3,60.30068,R,ugm-3,184.16256,R,ugm-3
05-01-2021,09:00,86.57181,R,ugm-3,54.68500,R,ugm-3,187.42659,R,ugm-3
05-01-2021,10:00,68.34271,R,ugm-3,54.07566,R,ugm-3,158.86635,R,ugm-3
05-01-2021,11:00,39.64996,R,ugm-3,47.63117,R,ugm-3,108.42692,R,ugm-3
05-01-2021,12:00,19.74272,R,ugm-3,31.43878,R,ugm-3,61.71053,R,ugm-3
05-01-2021,13:00,44.25659,R,ugm-3,51.07385,R,ugm-3,118.93301,R,ugm-3
05-01-2021,14:00,101.93823,R,ugm-3,67.79280,R,ugm-3,224.09590,R,ugm-3
05-01-2021,15:00,64.52578,R,ugm-3,51.00312,R,ugm-3,149.94127,R,ugm-3
05-01-2021,16:00,46.92186,R,ugm-3,47.59917,R,ugm-3,119.54501,R,ugm-3
05-01-2021,17:00,74.49585,R,ugm-3,61.67512,R,ugm-3,175.90049,R,ugm-3
05-01-2021,18:00,80.35286,R,ugm-3,61.67057,R,ugm-3,184.87657,R,ugm-3
05-01-2021,19:00,94.10695,R,ugm-3,57.56440,R,ugm-3,201.85971,R,ugm-3
05-01-2021,20:00,85.94663,R,ugm-3,57.98962,R,ugm-3,189.77261,R,ugm-3
05-01-2021,21:00,38.23506,R,ugm-3,40.77357,R,ugm-3,99.39985,R,ugm-3
05-01-2021,22:00,17.99878,R,ugm-3,39.21283,R,ugm-3,66.81057,R,ugm-3
05-01-2021,23:00,20.86147,R,ugm-3,42.01449,R,ugm-3,74.00163,R,ugm-3
05-01-2021,24:00,9.60812,R,ugm-3,33.15716,R,ugm-3,47.88941,R,ugm-3
06-01-2021,01:00,6.71469,R,ugm-3,25.23508,R,ugm-3,35.53079,R,ugm-3
06-01-2021,02:00,1.67867,R,ugm-3,14.22152,R,ugm-3,16.79545,R,ugm-3
06-01-2021,03:00,2.69904,R,ugm-3,14.23952,R,ugm-3,18.37799,R,ugm-3
06-01-2021,04:00,2.86362,R,ugm-3,13.06828,R,ugm-3,17.45909,R,ugm-3
06-01-2021,05:00,5.52974,R,ugm-3,20.26232,R,ugm-3,28.74114,R,ugm-3
06-01-2021,06:00,41.34140,R,ugm-3,33.09520,R,ugm-3,96.48447,R,ugm-3
06-01-2021,07:00,68.99011,R,ugm-3,43.18049,R,ugm-3,148.96385,R,ugm-3
06-01-2021,08:00,120.93018,R,ugm-3,54.10283,R,ugm-3,239.52652,R,ugm-3
06-01-2021,09:00,227.80560,R,ugm-3,64.56516,R,ugm-3,413.86220,R,ugm-3
06-01-2021,10:00,183.10686,R,ugm-3,64.03165,R,ugm-3,344.79158,R,ugm-3
06-01-2021,11:00,109.73904,R,ugm-3,53.75220,R,ugm-3,222.01637,R,ugm-3
06-01-2021,12:00,92.52443,R,ugm-3,51.25328,R,ugm-3,193.12208,R,ugm-3
06-01-2021,13:00,97.26420,R,ugm-3,54.91041,R,ugm-3,204.04678,R,ugm-3
06-01-2021,14:00,85.34893,R,ugm-3,54.49596,R,ugm-3,185.36249,R,ugm-3
06-01-2021,15:00,72.77535,R,ugm-3,54.88668,R,ugm-3,166.47399,R,ugm-3
06-01-2021,16:00,54.60620,R,ugm-3,53.13667,R,ugm-3,136.86500,R,ugm-3
06-01-2021,17:00,65.69860,R,ugm-3,55.32335,R,ugm-3,156.05980,R,ugm-3
06-01-2021,18:00,93.08398,R,ugm-3,62.23890,R,ugm-3,204.96568,R,ugm-3
06-01-2021,19:00,139.00059,R,ugm-3,68.25624,R,ugm-3,281.38750,R,ugm-3
06-01-2021,20:00,115.76251,R,ugm-3,62.99643,R,ugm-3,240.49647,R,ugm-3
06-01-2021,21:00,88.87085,R,ugm-3,56.39590,R,ugm-3,192.66263,R,ugm-3
06-01-2021,22:00,69.68133,R,ugm-3,54.42368,R,ugm-3,161.26689,R,ugm-3
06-01-2021,23:00,59.51055,R,ugm-3,53.42741,R,ugm-3,144.67565,R,ugm-3
06-01-2021,24:00,49.47144,R,ugm-3,49.52361,R,ugm-3,125.37876,R,ugm-3
07-01-2021,01:00,22.71875,R,ugm-3,46.26002,R,ugm-3,81.09496,R,ugm-3
07-01-2021,02:00,26.43936,R,ugm-3,45.56292,R,ugm-3,86.10271,R,ugm-3
07-01-2021,03:00,38.81943,R,ugm-3,45.23174,R,ugm-3,104.75404,R,ugm-3
07-01-2021,04:00,32.72817,R,ugm-3,42.56315,R,ugm-3,92.74565,R,ugm-3
07-01-2021,05:00,10.17405,R,ugm-3,37.44132,R,ugm-3,53.04131,R,ugm-3
07-01-2021,06:00,3.25965,R,ugm-3,33.32659,R,ugm-3,38.32465,R,ugm-3
07-01-2021,07:00,43.89000,R,ugm-3,44.66202,R,ugm-3,111.95907,R,ugm-3
07-01-2021,08:00,93.01518,R,ugm-3,53.29431,R,ugm-3,195.91560,R,ugm-3
07-01-2021,09:00,120.54109,R,ugm-3,60.60395,R,ugm-3,245.43105,R,ugm-3
07-01-2021,10:00,147.73774,R,ugm-3,64.22829,R,ugm-3,290.75633,R,ugm-3
07-01-2021,11:00,105.26355,R,ugm-3,62.77178,R,ugm-3,224.17364,R,ugm-3
07-01-2021,12:00,72.73293,R,ugm-3,52.81382,R,ugm-3,164.33609,R,ugm-3
07-01-2021,13:00,69.20988,R,ugm-3,49.06894,R,ugm-3,155.18928,R,ugm-3
07-01-2021,14:00,106.28425,R,ugm-3,58.95835,R,ugm-3,221.92526,R,ugm-3
07-01-2021,15:00,151.42542,R,ugm-3,62.45749,R,ugm-3,294.63990,R,ugm-3
07-01-2021,16:00,217.01347,R,ugm-3,75.99580,R,ugm-3,408.74515,R,ugm-3
07-01-2021,17:00,196.03978,R,ugm-3,69.11497,R,ugm-3,369.70511,R,ugm-3
07-01-2021,18:00,137.76125,R,ugm-3,61.23174,R,ugm-3,272.46270,R,ugm-3
07-01-2021,19:00,114.08765,R,ugm-3,57.31542,R,ugm-3,232.24737,R,ugm-3
07-01-2021,20:00,115.07542,R,ugm-3,61.83060,R,ugm-3,238.27711,R,ugm-3
07-01-2021,21:00,78.29738,R,ugm-3,59.04955,R,ugm-3,179.10386,R,ugm-3
07-01-2021,22:00,18.07623,R,ugm-3,47.09322,R,ugm-3,74.80971,R,ugm-3
07-01-2021,23:00,4.74131,R,ugm-3,22.92992,R,ugm-3,30.19982,R,ugm-3
07-01-2021,24:00,1.87677,R,ugm-3,6.72904,R,ugm-3,9.60671,R,ugm-3
08-01-2021,01:00,1.15277,R,ugm-3,5.08642,R,ugm-3,6.85398,R,ugm-3
08-01-2021,02:00,7.41067,R,ugm-3,17.48521,R,ugm-3,28.84808,R,ugm-3
08-01-2021,03:00,4.01823,R,ugm-3,28.51787,R,ugm-3,34.67908,R,ugm-3
08-01-2021,04:00,2.40435,R,ugm-3,25.26376,R,ugm-3,28.95038,R,ugm-3
08-01-2021,05:00,1.61388,R,ugm-3,13.07474,R,ugm-3,15.54932,R,ugm-3
08-01-2021,06:00,13.63564,R,ugm-3,39.44823,R,ugm-3,60.35591,R,ugm-3
08-01-2021,07:00,33.10101,R,ugm-3,59.16520,R,ugm-3,109.91937,R,ugm-3
08-01-2021,08:00,65.93853,R,ugm-3,74.43931,R,ugm-3,175.54364,R,ugm-3
08-01-2021,09:00,71.57064,R,ugm-3,82.63157,R,ugm-3,192.37169,R,ugm-3
08-01-2021,10:00,121.13981,R,ugm-3,93.11966,R,ugm-3,278.86478,R,ugm-3
08-01-2021,11:00,88.96102,R,ugm-3,83.68950,R,ugm-3,220.09449,R,ugm-3
08-01-2021,12:00,78.52021,R,ugm-3,75.70960,R,ugm-3,196.10557,R,ugm-3
08-01-2021,13:00,37.67916,R,ugm-3,55.93050,R,ugm-3,113.70441,R,ugm-3
08-01-2021,14:00,28.19350,R,ugm-3,44.79814,R,ugm-3,88.02757,R,ugm-3
08-01-2021,15:00,78.58608,R,ugm-3,78.16606,R,ugm-3,198.66303,R,ugm-3
08-01-2021,16:00,119.88823,R,ugm-3,94.32264,R,ugm-3,278.14870,R,ugm-3
08-01-2021,17:00,135.76354,R,ugm-3,95.96457,R,ugm-3,304.13243,R,ugm-3
08-01-2021,18:00,134.18260,R,ugm-3,93.12029,R,ugm-3,298.86407,R,ugm-3
08-01-2021,19:00,115.37596,R,ugm-3,84.46447,R,ugm-3,261.37180,R,ugm-3
08-01-2021,20:00,151.40830,R,ugm-3,86.96296,R,ugm-3,319.11911,R,ugm-3
08-01-2021,21:00,97.35978,R,ugm-3,78.73968,R,ugm-3,228.02260,R,ugm-3
08-01-2021,22:00,33.33156,R,ugm-3,70.93402,R,ugm-3,122.04171,R,ugm-3
08-01-2021,23:00,31.12483,R,ugm-3,67.31021,R,ugm-3,115.03428,R,ugm-3
08-01-2021,24:00,17.45625,R,ugm-3,63.20535,R,ugm-3,89.97123,R,ugm-3
09-01-2021,01:00,41.15071,R,ugm-3,64.89969,R,ugm-3,127.99657,R,ugm-3
09-01-2021,02:00,63.25810,R,ugm-3,65.86844,R,ugm-3,162.86284,R,ugm-3
09-01-2021,03:00,66.98110,R,ugm-3,66.91813,R,ugm-3,169.62106,R,ugm-3
09-01-2021,04:00,56.96524,R,ugm-3,63.53688,R,ugm-3,150.88236,R,ugm-3
09-01-2021,05:00,45.92802,R,ugm-3,59.26415,R,ugm-3,129.68613,R,ugm-3
09-01-2021,06:00,40.82124,R,ugm-3,58.08347,R,ugm-3,120.67517,R,ugm-3
09-01-2021,07:00,33.90239,R,ugm-3,55.89258,R,ugm-3,107.87551,R,ugm-3
09-01-2021,08:00,43.81941,R,ugm-3,54.71511,R,ugm-3,121.90394,R,ugm-3
09-01-2021,09:00,24.41367,R,ugm-3,55.28694,R,ugm-3,92.72072,R,ugm-3
09-01-2021,10:00,28.00489,R,ugm-3,51.06045,R,ugm-3,94.00068,R,ugm-3
09-01-2021,11:00,10.51007,R,ugm-3,37.48975,R,ugm-3,53.60497,R,ugm-3
09-01-2021,12:00,7.14948,R,ugm-3,27.74378,R,ugm-3,38.70616,R,ugm-3
09-01-2021,13:00,18.25260,R,ugm-3,33.80982,R,ugm-3,61.79675,R,ugm-3
09-01-2021,14:00,20.39415,R,ugm-3,35.39003,R,ugm-3,66.66062,R,ugm-3
09-01-2021,15:00,13.17877,R,ugm-3,30.73547,R,ugm-3,50.94264,R,ugm-3
09-01-2021,16:00,11.66321,R,ugm-3,21.94919,R,ugm-3,39.83253,R,ugm-3
09-01-2021,17:00,1.91092,R,ugm-3,8.74325,R,ugm-3,11.67329,R,ugm-3
09-01-2021,18:00,0.98841,R,ugm-3,5.24268,R,ugm-3,6.75822,R,ugm-3
09-01-2021,19:00,1.12020,R,ugm-3,5.55260,R,ugm-3,7.27021,R,ugm-3
09-01-2021,20:00,2.17450,R,ugm-3,6.49595,R,ugm-3,9.83014,R,ugm-3
09-01-2021,21:00,2.89933,R,ugm-3,8.20048,R,ugm-3,12.64606,R,ugm-3
09-01-2021,22:00,0.95546,R,ugm-3,3.60365,R,ugm-3,5.06866,R,ugm-3
09-01-2021,23:00,0.62599,R,ugm-3,2.77766,R,ugm-3,3.73750,R,ugm-3
09-01-2021,24:00,0.29652,R,ugm-3,2.82205,R,ugm-3,3.27671,R,ugm-3
10-01-2021,01:00,0.92281,R,ugm-3,3.70986,R,ugm-3,5.12482,R,ugm-3
10-01-2021,02:00,0.98873,R,ugm-3,3.81379,R,ugm-3,5.32981,R,ugm-3
10-01-2021,03:00,2.53773,R,ugm-3,14.91695,R,ugm-3,18.80808,R,ugm-3
10-01-2021,04:00,0.88985,R,ugm-3,10.83265,R,ugm-3,12.19707,R,ugm-3
10-01-2021,05:00,0.95577,R,ugm-3,6.99046,R,ugm-3,8.45595,R,ugm-3
10-01-2021,06:00,2.24111,R,ugm-3,14.44929,R,ugm-3,17.88561,R,ugm-3
10-01-2021,07:00,5.96531,R,ugm-3,34.00428,R,ugm-3,43.15097,R,ugm-3
10-01-2021,08:00,17.10496,R,ugm-3,44.13651,R,ugm-3,70.36375,R,ugm-3
10-01-2021,09:00,12.68865,R,ugm-3,38.45479,R,ugm-3,57.91044,R,ugm-3
10-01-2021,10:00,15.62187,R,ugm-3,42.87443,R,ugm-3,66.82763,R,ugm-3
10-01-2021,11:00,1.41717,R,ugm-3,15.04642,R,ugm-3,17.21939,R,ugm-3
10-01-2021,12:00,1.15351,R,ugm-3,11.50458,R,ugm-3,13.27328,R,ugm-3
10-01-2021,13:00,1.54900,R,ugm-3,6.69582,R,ugm-3,9.07093,R,ugm-3
10-01-2021,14:00,1.81266,R,ugm-3,6.18905,R,ugm-3,8.96843,R,ugm-3
10-01-2021,15:00,3.52646,R,ugm-3,8.17361,R,ugm-3,13.58077,R,ugm-3
10-01-2021,16:00,4.58110,R,ugm-3,13.57752,R,ugm-3,20.60177,R,ugm-3
10-01-2021,17:00,1.68083,R,ugm-3,6.23745,R,ugm-3,8.81469,R,ugm-3
10-01-2021,18:00,1.18647,R,ugm-3,4.58679,R,ugm-3,6.40602,R,ugm-3
10-01-2021,19:00,0.88985,R,ugm-3,4.01664,R,ugm-3,5.38106,R,ugm-3
10-01-2021,20:00,0.95577,R,ugm-3,4.22306,R,ugm-3,5.68855,R,ugm-3
10-01-2021,21:00,0.49436,R,ugm-3,2.77811,R,ugm-3,3.53613,R,ugm-3
10-01-2021,22:00,0.42845,R,ugm-3,2.31545,R,ugm-3,2.97239,R,ugm-3
10-01-2021,23:00,0.56028,R,ugm-3,2.21581,R,ugm-3,3.07489,R,ugm-3
10-01-2021,24:00,0.49436,R,ugm-3,2.47062,R,ugm-3,3.22864,R,ugm-3
11-01-2021,01:00,0.72530,R,ugm-3,2.17095,R,ugm-3,3.28306,R,ugm-3
11-01-2021,02:00,0.72530,R,ugm-3,1.91446,R,ugm-3,3.02657,R,ugm-3
11-01-2021,03:00,0.62639,R,ugm-3,1.75832,R,ugm-3,2.71878,R,ugm-3
11-01-2021,04:00,0.39562,R,ugm-3,1.80439,R,ugm-3,2.41099,R,ugm-3
11-01-2021,05:00,0.39562,R,ugm-3,2.11218,R,ugm-3,2.71878,R,ugm-3
11-01-2021,06:00,0.49452,R,ugm-3,2.11442,R,ugm-3,2.87267,R,ugm-3
11-01-2021,07:00,0.75827,R,ugm-3,2.68467,R,ugm-3,3.84733,R,ugm-3
11-01-2021,08:00,1.28576,R,ugm-3,3.56869,R,ugm-3,5.54016,R,ugm-3
11-01-2021,09:00,2.40667,R,ugm-3,5.33822,R,ugm-3,9.02840,R,ugm-3
11-01-2021,10:00,2.24183,R,ugm-3,6.15525,R,ugm-3,9.59268,R,ugm-3
11-01-2021,11:00,1.38466,R,ugm-3,5.16116,R,ugm-3,7.28428,R,ugm-3
11-01-2021,12:00,5.11006,R,ugm-3,8.11828,R,ugm-3,15.95359,R,ugm-3
11-01-2021,13:00,6.95627,R,ugm-3,11.44318,R,ugm-3,22.10932,R,ugm-3
11-01-2021,14:00,5.80239,R,ugm-3,9.77550,R,ugm-3,18.67237,R,ugm-3
11-01-2021,15:00,5.37381,R,ugm-3,10.27876,R,ugm-3,18.51848,R,ugm-3
11-01-2021,16:00,8.90139,R,ugm-3,18.25857,R,ugm-3,31.90719,R,ugm-3
11-01-2021,17:00,13.51693,R,ugm-3,25.80137,R,ugm-3,46.52704,R,ugm-3
11-01-2021,18:00,5.96723,R,ugm-3,20.91084,R,ugm-3,30.06047,R,ugm-3
11-01-2021,19:00,7.31892,R,ugm-3,26.37904,R,ugm-3,37.60123,R,ugm-3
11-01-2021,20:00,5.73645,R,ugm-3,14.39080,R,ugm-3,23.18657,R,ugm-3
11-01-2021,21:00,3.26385,R,ugm-3,9.82055,R,ugm-3,14.82504,R,ugm-3
11-01-2021,22:00,2.14293,R,ugm-3,10.10293,R,ugm-3,13.38871,R,ugm-3
11-01-2021,23:00,0.92311,R,ugm-3,9.92139,R,ugm-3,11.33680,R,ugm-3
11-01-2021,24:00,0.75827,R,ugm-3,10.12284,R,ugm-3,11.28550,R,ugm-3
12-01-2021,01:00,0.59362,R,ugm-3,11.05372,R,ugm-3,11.96392,R,ugm-3
12-01-2021,02:00,1.87979,R,ugm-3,18.88894,R,ugm-3,21.77125,R,ugm-3
12-01-2021,03:00,1.84681,R,ugm-3,17.70718,R,ugm-3,20.53891,R,ugm-3
12-01-2021,04:00,1.31915,R,ugm-3,16.77044,R,ugm-3,18.79310,R,ugm-3
12-01-2021,05:00,6.46383,R,ugm-3,25.56990,R,ugm-3,35.48097,R,ugm-3
12-01-2021,06:00,19.12766,R,ugm-3,31.41516,R,ugm-3,60.74383,R,ugm-3
12-01-2021,07:00,42.54256,R,ugm-3,52.40560,R,ugm-3,117.63661,R,ugm-3
12-01-2021,08:00,78.78618,R,ugm-3,72.05658,R,ugm-3,192.86037,R,ugm-3
12-01-2021,09:00,149.85534,R,ugm-3,84.26496,R,ugm-3,314.03994,R,ugm-3
12-01-2021,10:00,182.66917,R,ugm-3,90.99795,R,ugm-3,371.08677,R,ugm-3
12-01-2021,11:00,122.38406,R,ugm-3,76.27206,R,ugm-3,263.92500,R,ugm-3
12-01-2021,12:00,57.28405,R,ugm-3,60.76470,R,ugm-3,148.59902,R,ugm-3
12-01-2021,13:00,,,,,,,,,
12-01-2021,14:00,,,,,,,,,
12-01-2021,15:00,,,,,,,,,
12-01-2021,16:00,,,,,,,,,
12-01-2021,17:00,,,,,,,,,
12-01-2021,18:00,,,,,,,,,
12-01-2021,19:00,,,,,,,,,
12-01-2021,20:00,,,,,,,,,
12-01-2021,21:00,,,,,,,,,
12-01-2021,22:00,,,,,,,,,
12-01-2021,23:00,,,,,,,,,
12-01-2021,24:00,,,,,,,,,
13-01-2021,01:00,,,,,,,,,
13-01-2021,02:00,,,,,,,,,
13-01-2021,03:00,,,,,,,,,
13-01-2021,04:00,,,,,,,,,
13-01-2021,05:00,,,,,,,,,
13-01-2021,06:00,,,,,,,,,
13-01-2021,07:00,,,,,,,,,
13-01-2021,08:00,,,,,,,,,
13-01-2021,09:00,,,,,,,,,
13-01-2021,10:00,,,,,,,,,
13-01-2021,11:00,43.25566,R,ugm-3,47.60288,R,ugm-3,113.92729,R,ugm-3
13-01-2021,12:00,61.35578,R,ugm-3,64.62884,R,ugm-3,158.70638,R,ugm-3
13-01-2021,13:00,53.14643,R,ugm-3,58.88829,R,ugm-3,140.37835,R,ugm-3
13-01-2021,14:00,42.86003,R,ugm-3,57.81721,R,ugm-3,123.53500,R,ugm-3
13-01-2021,15:00,42.29955,R,ugm-3,55.96323,R,ugm-3,120.82163,R,ugm-3
13-01-2021,16:00,58.42151,R,ugm-3,64.11081,R,ugm-3,153.68921,R,ugm-3
13-01-2021,17:00,47.90432,R,ugm-3,60.37305,R,ugm-3,133.82532,R,ugm-3
13-01-2021,18:00,35.96945,R,ugm-3,48.46752,R,ugm-3,103.61991,R,ugm-3
13-01-2021,19:00,32.57362,R,ugm-3,49.73233,R,ugm-3,99.67785,R,ugm-3
13-01-2021,20:00,12.82504,R,ugm-3,37.57190,R,ugm-3,57.23669,R,ugm-3
13-01-2021,21:00,8.80279,R,ugm-3,27.71504,R,ugm-3,41.21246,R,ugm-3
13-01-2021,22:00,4.48382,R,ugm-3,24.61021,R,ugm-3,31.48530,R,ugm-3
13-01-2021,23:00,4.25303,R,ugm-3,16.72158,R,ugm-3,23.24281,R,ugm-3
13-01-2021,24:00,3.39583,R,ugm-3,14.34985,R,ugm-3,19.55672,R,ugm-3
14-01-2021,01:00,1.54911,R,ugm-3,10.89616,R,ugm-3,13.27142,R,ugm-3
14-01-2021,02:00,1.87871,R,ugm-3,10.69704,R,ugm-3,13.57769,R,ugm-3
14-01-2021,03:00,1.35135,R,ugm-3,8.69823,R,ugm-3,10.77027,R,ugm-3
14-01-2021,04:00,0.98879,R,ugm-3,7.36552,R,ugm-3,8.88164,R,ugm-3
14-01-2021,05:00,1.05471,R,ugm-3,7.87697,R,ugm-3,9.49417,R,ugm-3
14-01-2021,06:00,1.71391,R,ugm-3,10.28616,R,ugm-3,12.91412,R,ugm-3
14-01-2021,07:00,5.30652,R,ugm-3,15.64992,R,ugm-3,23.78647,R,ugm-3
14-01-2021,08:00,16.61173,R,ugm-3,27.81891,R,ugm-3,53.28987,R,ugm-3
14-01-2021,09:00,29.30124,R,ugm-3,41.13214,R,ugm-3,86.06008,R,ugm-3
14-01-2021,10:00,15.09558,R,ugm-3,34.27820,R,ugm-3,57.42443,R,ugm-3
14-01-2021,11:00,15.39222,R,ugm-3,29.84194,R,ugm-3,53.44300,R,ugm-3
14-01-2021,12:00,18.45747,R,ugm-3,35.45281,R,ugm-3,63.75388,R,ugm-3
14-01-2021,13:00,20.27026,R,ugm-3,35.42962,R,ugm-3,66.51025,R,ugm-3
14-01-2021,14:00,19.51219,R,ugm-3,34.95858,R,ugm-3,64.87684,R,ugm-3
14-01-2021,15:00,21.48977,R,ugm-3,36.92863,R,ugm-3,69.87915,R,ugm-3
14-01-2021,16:00,31.08107,R,ugm-3,46.82536,R,ugm-3,94.48233,R,ugm-3
14-01-2021,17:00,49.14302,R,ugm-3,54.50419,R,ugm-3,129.85578,R,ugm-3
14-01-2021,18:00,44.82529,R,ugm-3,56.58171,R,ugm-3,125.31287,R,ugm-3
14-01-2021,19:00,41.69411,R,ugm-3,57.14614,R,ugm-3,121.07622,R,ugm-3
14-01-2021,20:00,50.62621,R,ugm-3,56.41560,R,ugm-3,134.04138,R,ugm-3
14-01-2021,21:00,23.03888,R,ugm-3,53.03126,R,ugm-3,88.35705,R,ugm-3
14-01-2021,22:00,28.80684,R,ugm-3,53.37509,R,ugm-3,97.54496,R,ugm-3
14-01-2021,23:00,18.68819,R,ugm-3,49.08509,R,ugm-3,77.73992,R,ugm-3
14-01-2021,24:00,11.50296,R,ugm-3,45.65685,R,ugm-3,63.29448,R,ugm-3
15-01-2021,01:00,15.88204,R,ugm-3,51.37557,R,ugm-3,75.72769,R,ugm-3
15-01-2021,02:00,9.12723,R,ugm-3,53.08111,R,ugm-3,67.07601,R,ugm-3
15-01-2021,03:00,18.51807,R,ugm-3,53.89882,R,ugm-3,82.29280,R,ugm-3
15-01-2021,04:00,21.94490,R,ugm-3,55.51488,R,ugm-3,89.16325,R,ugm-3
15-01-2021,05:00,24.74567,R,ugm-3,54.93555,R,ugm-3,92.87839,R,ugm-3
15-01-2021,06:00,31.79704,R,ugm-3,53.23333,R,ugm-3,101.98810,R,ugm-3
15-01-2021,07:00,12.05981,R,ugm-3,46.80333,R,ugm-3,65.29478,R,ugm-3
15-01-2021,08:00,31.56638,R,ugm-3,49.41382,R,ugm-3,97.81494,R,ugm-3
15-01-2021,09:00,30.70968,R,ugm-3,52.15241,R,ugm-3,99.23992,R,ugm-3
15-01-2021,10:00,46.55877,R,ugm-3,52.73712,R,ugm-3,124.12624,R,ugm-3
15-01-2021,11:00,33.27980,R,ugm-3,49.99283,R,ugm-3,101.02115,R,ugm-3
15-01-2021,12:00,16.83760,R,ugm-3,46.55151,R,ugm-3,72.36880,R,ugm-3
15-01-2021,13:00,11.56555,R,ugm-3,46.33976,R,ugm-3,64.07337,R,ugm-3
15-01-2021,14:00,14.56403,R,ugm-3,48.86708,R,ugm-3,71.19828,R,ugm-3
15-01-2021,15:00,17.72726,R,ugm-3,46.71415,R,ugm-3,73.89557,R,ugm-3
15-01-2021,16:00,4.51419,R,ugm-3,30.17880,R,ugm-3,37.10046,R,ugm-3
15-01-2021,17:00,12.12571,R,ugm-3,31.43460,R,ugm-3,50.02710,R,ugm-3
15-01-2021,18:00,11.99391,R,ugm-3,33.82506,R,ugm-3,52.21547,R,ugm-3
15-01-2021,19:00,7.21612,R,ugm-3,32.85547,R,ugm-3,43.92003,R,ugm-3
15-01-2021,20:00,3.16323,R,ugm-3,27.61905,R,ugm-3,32.46927,R,ugm-3
15-01-2021,21:00,2.57012,R,ugm-3,24.20262,R,ugm-3,28.14342,R,ugm-3
15-01-2021,22:00,3.06438,R,ugm-3,22.68139,R,ugm-3,27.38004,R,ugm-3
15-01-2021,23:00,1.54866,R,ugm-3,18.59303,R,ugm-3,20.96761,R,ugm-3
15-01-2021,24:00,1.41686,R,ugm-3,15.02909,R,ugm-3,17.20159,R,ugm-3
16-01-2021,01:00,0.88940,R,ugm-3,12.18401,R,ugm-3,13.54774,R,ugm-3
16-01-2021,02:00,0.69176,R,ugm-3,9.39188,R,ugm-3,10.45256,R,ugm-3
16-01-2021,03:00,0.46117,R,ugm-3,9.54248,R,ugm-3,10.24960,R,ugm-3
16-01-2021,04:00,0.59294,R,ugm-3,8.73156,R,ugm-3,9.64071,R,ugm-3